Tracking 19170 objects as of 22-May-2018
HD Live streaming from Space Station
objects crossing your sky now

COSMOS 2286

Track COSMOS 2286 now!
COSMOS 2286 is classified as:


NORAD ID: 23194
Int'l Code: 1994-048A
Perigee: 3,747.8 km
Apogee: 36,634.7 km
Inclination: 67.7 °
Period: 718.1 minutes
Semi major axis: 26562 km
RCS: 14.1879 m2 (large)
Launch date: August 5, 1994
Source: Commonwealth of Independent States (former USSR) (CIS)
Launch site: PLESETSK MISSILE AND SPACE COMPLEX (PKMTR)
aabbcc
Your satellite tracking list
Your tracking list is empty




NASA's NSSDC Master Catalog

Two Line Element Set (TLE):
1 23194U 94048A   18141.53559195 +.00000464 +00000-0 +00000-0 0  9995
2 23194 067.7031 347.5463 6190545 174.2010 199.2962 02.00542466174326
Source of the keplerian elements: AFSPC